Torna al catalogo

FREGAT DEB

AttivoUNKNOWN
NORAD 46260·DEBRIS·🇷🇺 Russia

Lanciato Jul 18, 2011 da Baikonur Cosmodrome

Loading…

Prossimi Passaggi (prossime 24 ore)

TLE

AggiornatoSource: Space-Track

Epoca: Sep 14, 2026, 09:02 UTC

1 46260U 11037KW  26257.37641114  .00008859  00000-0  74922-1 0  9994
2 46260  51.2830 243.4652 1393187 218.2388 131.1111 10.76272073 61684

Traccia FREGAT DEB in tempo reale con AllMySat

Download on the App Store